{"data":{"norad_id":57904,"epoch":"2026-05-24T23:57:24.378048Z","epoch_age_seconds":75220,"freshness":"FRESH","line1":"1 57904U 23146P   26144.99819882  .00000791  00000+0  38278-4 0  9990","line2":"2 57904  43.0055 243.5132 0002390 268.2455  91.8123 15.27579769147666","mean_motion":15.27579769,"eccentricity":0.000239,"inclination_deg":43.0055,"raan_deg":243.5132,"arg_perigee_deg":268.2455,"mean_anomaly_deg":91.8123,"bstar":3.8278e-5,"rev_number":14766,"period_min":94.266762968632,"perigee_km":481.40996409457,"apogee_km":484.68961137911,"semimajor_km":6861.1867877368,"source":"CELESTRAK","updated_at":"2026-05-25T13:38:18.454537Z"}}